Regional Weather Roundup
Issued by NWS

Home | Current Version | Previous Version | Graphics & Text | Print | Product List | Glossary On
Versions: 1 2 3 4 5 6 7 8 9 10 11 12 13 14 15 16 17 18 19 20 21 22 23 24 25 26 27 28 29 30 31 32 33 34 35 36 37 38 39 40 41 42 43 44 45 46 47 48 49 50
000
ASUS43 KBIS 282102
RWRND

NORTH DAKOTA REGIONAL WEATHER ROUNDUP
NATIONAL WEATHER SERVICE BISMARCK ND
400 PM CDT THU APR 28 2016

NOTE: "FAIR" INDICATES FEW OR NO CLOUDS BELOW 12,000 FEET WITH NO
SIGNIFICANT WEATHER AND/OR OBSTRUCTIONS TO VISIBILITY.


NDZ001>003-009>011-017-282200-
NORTHWEST NORTH DAKOTA

CITY           SKY/WX    TMP DP  RH WIND       PRES   REMARKS
WILLISTON      PTSUNNY   56  23  27 E10       30.14R
MINOT          CLOUDY    60  12  15 E15       30.13S
MINOT AFB      CLOUDY    56  15  19 E17G23    30.12F
$$

NDZ018>021-031>035-040>046-282200-
SOUTHWEST NORTH DAKOTA

CITY           SKY/WX    TMP DP  RH WIND       PRES   REMARKS
BISMARCK       CLOUDY    55  21  26 E14G23    30.09S
DICKINSON      CLOUDY    51  29  42 NE10      30.08S
GARRISON         N/A     57  19  22 E14G22    30.11S
HETTINGER ARPT CLOUDY    46  34  62 VRB6      30.10S
$$

NDZ004>008-012>016-024-026-027-054-282200-
NORTHEAST NORTH DAKOTA

CITY           SKY/WX    TMP DP  RH WIND       PRES   REMARKS
GRAND FORKS    CLOUDY    57  25  29 NE17      30.11S
GRND FRKS AFB  CLOUDY    57  22  26 NE16G22   30.12S
DEVILS LAKE    MOSUNNY   53  18  25 E18       30.14S
$$

NDZ022-023-025-028>030-036>039-047>053-282200-
SOUTHEAST NORTH DAKOTA

CITY           SKY/WX    TMP DP  RH WIND       PRES   REMARKS
FARGO          CLOUDY    59  19  21 NE12G21   30.05S
JAMESTOWN      CLOUDY    55  23  28 NE21      30.07R
$$





USA.gov is the U.S. government's official web portal to all federal, state and local government web resources and services.